Regional Weather Roundup
Issued by NWS

Home | Current Version | Previous Version | Graphics & Text | Print | Product List | Glossary On
Versions: 1 2 3 4 5 6 7 8 9 10 11 12 13 14 15 16 17 18 19 20 21 22 23 24 25 26 27 28 29 30 31 32 33 34 35 36 37 38 39 40 41 42 43 44 45 46 47 48 49 50
000
ASUS43 KBIS 271310
RWRND
NORTH DAKOTA REGIONAL WEATHER ROUNDUP
NATIONAL WEATHER SERVICE EASTERN NORTH DAKOTA/GRAND FORKS ND
800 AM CDT TUE JUN 27 2017

  NOTE: "FAIR" INDICATES FEW OR NO CLOUDS BELOW 12,000 FEET WITH NO
  SIGNIFICANT WEATHER AND/OR OBSTRUCTIONS TO VISIBILITY.

NDZ001>003-009>011-017-271400-
...NORTHWEST NORTH DAKOTA...

CITY           SKY/WX    TMP DP  RH WIND       PRES   REMARKS
WILLISTON      FAIR      66  43  43 S13G21    29.66F
MINOT          FAIR      65  40  39 SE17G26   29.72F
MINOT AFB      FAIR      65  41  40 S21G29    29.70F
$$

NDZ018>021-031>035-040>046-271400-
...SOUTHWEST NORTH DAKOTA...

CITY           SKY/WX    TMP DP  RH WIND       PRES   REMARKS
BISMARCK       FAIR      61  42  49 S12       29.82F
DICKINSON      FAIR      60  39  45 S21       29.69F
GARRISON         N/A     60  42  51 S14       29.76F
HETTINGER      FAIR      61  42  49 SE10      29.76F
$$

NDZ004>008-012>016-024-026-027-054-271400-
...NORTHEAST NORTH DAKOTA...

CITY           SKY/WX    TMP DP  RH WIND       PRES   REMARKS
GRAND FORKS    CLOUDY    58  46  64 S13       29.91F
GRAND FORKS AF FAIR      60  43  54 S13       29.91F
DEVILS LAKE    FAIR      59  43  55 S21       29.86F
$$

NDZ022-023-025-028>030-036>039-047>053-271400-
...SOUTHEAST NORTH DAKOTA...

CITY           SKY/WX    TMP DP  RH WIND       PRES   REMARKS
JAMESTOWN      FAIR      59  42  53 S14       29.90F
FARGO          FAIR      62  43  49 S15       29.97F
WAHPETON       FAIR      59  43  55 S12       30.00F
$$




USA.gov is the U.S. government's official web portal to all federal, state and local government web resources and services.